Regional Weather Roundup
Issued by NWS Charleston, SC

Current Version | Previous Version | Text Only | Print | Product List | Glossary Off
Versions: 1 2 3 4 5 6 7 8 9 10 11 12 13 14 15 16 17 18 19 20 21 22 23 24 25 26 27 28 29 30 31 32 33 34 35 36 37 38 39 40 41 42 43 44 45 46 47 48 49 50
000 ASUS42 KCHS 031327 RWRCHS REGIONAL WEATHER ROUNDUP NATIONAL WEATHER SERVICE CHARLESTON SC 900 AM EDT THU SEP 03 2015 NOTE: "FAIR" INDICATES FEW OR NO CLOUDS BELOW 12,000 FEET WITH NO SIGNIFICANT WEATHER AND/OR OBSTRUCTIONS TO VISIBILITY. NOT ALL STATIONS ARE QUALITY CONTROLLED BY THE NATIONAL WEATHER SERVICE. USE DATA WITH CAUTION...ESPECIALLY DEWPOINT OBSERVATIONS. SCZ027-030-031-034>040-042>050-031400- ...SOUTHEAST SOUTH CAROLINA... CITY SKY/WX TMP DP RH WIND PRES REMARKS N CHARLESTON PTSUNNY 79 72 79 NW5 29.98R WATERFRONT PRK N/A 79 73 82 CALM 29.94R MOUNT PLEASANT LGT RAIN 81 75 83 CALM 29.98R JOHNS ISLAND FAIR 81 75 83 CALM 29.98R PINOPOLIS N/A 81 73 78 W5 29.89R MONCKS CORNER FAIR 79 73 83 CALM 29.97S SUMMERVILLE FAIR 79 75 89 CALM 29.99R BEAUFORT MCAS PTSUNNY 79 74 84 CALM 29.98S BEAUFORT ARPT FAIR 77 75 94 CALM 29.97F HILTON HEAD IS NOT AVBL WALTERBORO MOSUNNY 81 73 78 W3 29.99R ALLENDALE FAIR 79 75 89 NW6 29.99R ...SOUTHERN MIDLANDS AND PEE DEE... CITY SKY/WX TMP DP RH WIND PRES REMARKS GEORGETOWN NOT AVBL KINGSTREE NOT AVBL ORANGEBURG MOSUNNY 78 72 81 VRB3 29.99R BARNWELL FAIR 81 75 83 W5 30.00S AIKEN FAIR 79 72 78 W5 30.03S MANNING FAIR 79 72 78 W5 29.98R COLUMBIA PTSUNNY 80 72 76 W7 29.98R SUMTER SUNNY 78 73 82 W7 29.96R FLORENCE MOSUNNY 79 73 82 CALM 29.96R MYRTLE BEACH MOSUNNY 81 73 78 CALM 29.98R N MYRTLE BEACH SUNNY 80 74 81 SW5 29.96R $$ GAZ063-065-086>088-099>101-113>116-118-119-134>141-150-031400- ...SOUTHEAST GEORGIA... CITY SKY/WX TMP DP RH WIND PRES REMARKS SAVANNAH ARPT PTSUNNY 78 73 84 NE7 29.98R HUNTER AAF MOSUNNY 76 76 100 N6 29.95R FORT STEWART LGT RAIN 77 73 88 N6 29.98R STATESBORO PTSUNNY 78 78 100 NW3 30.00R SYLVANIA NOT AVBL CLAXTON NOT AVBL ...CSRA...CENTRAL AND FAR SOUTHEAST GEORGIA... CITY SKY/WX TMP DP RH WIND PRES REMARKS THOMSON CLOUDY 78 76 95 CALM 30.05R AUGUSTA-BUSH CLOUDY 77 74 90 CALM 29.99R AUGUSTA-DANIEL CLOUDY 79 72 79 NW3 30.01R SWAINSBORO PTSUNNY 75 73 94 CALM 30.01S VIDALIA CLOUDY 77 73 88 N5 30.01R EASTMAN FAIR 76 76 100 CALM 30.03R HAZLEHURST FAIR 76 76 100 CALM 30.00R ALMA PTSUNNY 76 74 93 CALM 30.00R WAYCROSS MOSUNNY 79 77 94 N3 N/A JESUP CLOUDY 79 77 94 NW6 30.00R BAXLEY PTSUNNY 77 75 94 CALM 30.00R BRUNSWICK CLOUDY 72 72 100 W6 29.99R THUNDER SAINT SIMONS CLOUDY 75 75 100 W8 29.97R $$ SCZ027-028-034-036>038-045-046-048>050-GAZ119-141-031400- ...LAKE AND SUPPLEMENTAL COASTAL OBSERVATIONS... STATION/POSITION TIME TEMP WIND PRES WAVE SWELL AIR SEA DIR/SP/G HT/PER HT/PER/DIR (UTC) (F) (DEG/KT/KT) (MB) (FT/S) (FT/S/D) UPR LAKE MARION NOT AVBL WINYAH BAY 1245 78 270/ 4 1013.0S LAKE MURRAY 1200 76 310/ 3/ 4 1014.6R ACE BASIN NERRS NOT AVBL FORT PULASKI 1300 77 83 30/ 11/ 16 1015.0R SAPELO ISLAND 1300 76 300/ 10 1015.0R $$ ANZ835-935-AMZ111-154-330-350-352-354-370-450-454-472-031400- ...C-MAN AND BUOY OBSERVATIONS... STATION/POSITION TIME TEMP WIND PRES WAVE SWELL AIR SEA DIR/SP/G HT/PER HT/PER/DIR (UTC) (F) (DEG/KT/KT) (MB) (FT/S) (FT/S/D) BUOY 41004 1250 82 84 350/ 2/ 4 1014.2R 2/ 7 2/ 7 BUOY 41008 1250 79 84 300/ 12/ 12 1013.8R 2/ 4 2/100/ 8 FOLLY BEACH CMAN 1300 78 320/ 3/ 4 1014.9R CAPERS NEARSHORE 1208 80 300/ 4/ 6 1014.6R FRIPP NEARSHORE NOT AVBL STATION/POSITION TIME TEMP WIND PRES WAVE SWELL AIR SEA DIR/SP/G HT/PER HT/PER/DIR (UTC) (F) (DEG/KT/KT) (MB) (FT/S) (FT/S/D) 5E ST. MARYS GA 1221 85 N/A 2/ 8 FRYING PAN BUOY 1250 83 81 90/ 2/ 4 1014.4R 2/ 8 2/120/ 8 BUOY 41025 1250 79 85 10/ 10/ 12 1013.4R 2/ 9 2/ 60/ 9 CAPE LOOKOUT NC 1300 76 40/ 6/ 7 1013.5R BUOY 41002 1250 83 83 310/ 6/ 8 1014.1R 2/12 2/ 60/12 BUOY 41010 1220 84 86 240/ 12/ 14 1015.8R ST AUGUSTINE FL 1300 80 82 240/ 6/ 8 1016.0R $$

USA.gov is the U.S. government's official web portal to all federal, state and local government web resources and services.